Theta_e
302 301 301 302 301 302 303 304 306 308 309 310 313 318 324 327 342 347 344 341 331 324
301 301 300 300 300 301 303 305 306 306 306 308 310 312 317 319 325 339 339 338 331 326
300 301 301 300 299 299 301 303 304 305 304 304 307 310 312 316 318 329 336 333 327 321
299 300 300 299 299 299 300 299 300 303 304 303 302 306 310 313 316 321 329 322 321 318
299 300 298 298 298 299 298 300 300 302 304 303 302 302 307 310 313 322 322 318 319 319
298 297 297 297 298 299 299 298 299 299 300 301 302 302 303 310 311 316 323 320 321 326
298 297 297 298 296 296 296 296 297 299 299 300 301 303 302 308 311 311 324 323 323 328
300 299 298 295 295 295 295 296 296 296 298 301 303 303 303 306 311 310 323 323 321 327
299 299 297 295 294 294 294 294 293 292 293 295 302 305 304 305 309 312 321 319 318 318
297 298 297 295 294 293 292 293 291 291 291 290 295 297 301 304 307 309 318 318 315 314
298 296 297 295 293 293 293 292 291 291 291 290 291 294 298 303 307 309 318 316 313 312
297 295 294 293 293 293 292 293 292 291 290 289 289 292 296 304 311 313 314 313 311 310
297 295 294 293 293 294 294 293 295 292 291 291 287 291 294 299 303 299 299 301 304 305
298 296 295 295 294 295 295 295 292 292 291 290 288 287 291 294 296 296 295 295 296 297
Wind_Speed
18 13 13 15 15 13 14 14 18 17 17 18 18 16 16 14 14 15 11 14 13 10
18 19 16 18 16 14 18 15 19 19 19 20 19 18 18 15 15 14 12 13 14 11
19 20 19 17 18 19 18 20 21 21 19 18 19 20 19 16 14 19 11 9 12 10
16 17 17 17 19 19 19 21 21 20 20 19 19 19 20 20 19 19 12 11 14 16
16 19 19 17 20 20 21 20 20 20 21 20 21 19 21 22 19 19 14 15 15 17
18 16 19 19 19 19 20 20 21 20 21 21 20 19 20 22 20 21 17 18 18 21
17 16 17 18 19 19 19 20 20 21 21 22 22 20 20 22 21 18 18 18 19 22
18 16 18 17 17 18 18 17 18 21 21 24 18 15 17 20 23 19 20 18 18 20
17 19 17 18 18 17 19 18 17 18 20 22 16 20 25 23 20 18 20 17 17 17
16 18 18 17 19 20 19 18 18 19 19 21 20 31 28 28 20 18 21 17 18 15
16 16 18 18 18 20 18 19 17 19 20 19 17 38 32 24 20 17 22 19 19 19
15 16 16 17 17 16 18 16 16 17 21 22 21 39 37 10 12 16 9 12 16 16
13 14 15 15 15 17 15 18 16 19 20 27 24 35 40 25 8 11 10 11 10 12
13 11 13 15 14 17 17 17 19 20 19 23 24 25 38 35 14 10 12 11 8 13
Wind_Direction
348 341 332 331 323 315 312 312 314 309 307 302 296 289 285 285 275 255 235 215 197 195
344 340 333 327 318 315 310 310 308 307 301 300 295 290 285 276 279 265 229 224 200 197
338 337 332 325 320 316 311 308 305 302 297 293 290 290 285 278 275 272 222 216 193 183
339 328 327 322 318 316 309 309 304 298 292 289 285 279 278 275 272 269 221 191 191 189
331 335 332 325 322 315 311 306 300 295 290 287 284 274 268 271 267 263 209 193 195 194
345 331 331 327 323 316 312 305 301 296 290 285 277 270 264 263 263 271 211 200 196 200
346 335 332 332 327 318 314 307 303 302 291 282 275 265 261 260 261 264 220 210 200 197
344 341 340 341 332 324 328 325 322 316 314 313 265 259 251 253 255 254 232 211 202 197
349 352 348 342 342 336 339 335 329 334 330 323 321 266 254 249 255 253 237 202 197 195
351 351 355 348 345 348 342 341 342 340 340 335 328 338 295 249 245 245 249 199 188 183
350 347 353 352 344 342 344 348 351 347 344 341 337 338 325 253 238 238 240 188 183 176
346 349 348 351 341 343 343 350 356 349 350 350 349 350 343 306 235 237 187 172 174 167
348 348 349 351 342 347 343 358 352 2 358 353 354 354 0 20 26 82 79 77 88 118
354 341 353 351 352 351 353 357 1 1 3 1 356 353 7 21 30 39 73 63 72 78